Location: Beddau
(51.5575°N, 3.3561°W)
Time: 12:04:28
(UTC+00:00)

Cosmos 2154 Rocket - Pass Details

Date: 03 March 2021
Orbit: 966 x 996 km, 82.9° (Epoch: 10 April)

Event Time Altitude Azimuth Distance (km) Brightness Sun altitude
Rises 19:20:00 0° 191° (S) 3,657 7.1 -13.6°
Reaches altitude 10° 19:22:31 10° 193° (SSW) 2,710 6.4 -14.0°
Maximum altitude 19:28:44 81° 280° (W) 988 4.1 -14.9°
Drops below altitude 10° 19:34:58 10° 9° (N) 2,719 6.4 -15.9°
Sets 19:37:29 0° 10° (N) 3,670 7.0 -16.3°
